QPF
0.00 0.00 0.00 0.00 0.00 0.00 0.00 0.00 0.01 0.01 0.01 0.01 0.02 0.01 0.01 0.01 0.01 0.00 0.01 0.02 0.04 0.04 0.02 0.01 0.00 0.00 0.00 0.00 0.00 0.00 0.00 0.01 0.03 0.05 0.07 0.06 0.05 0.04 0.05 0.05 0.04 0.03 0.03 0.04
0.00 0.00 0.00 0.00 0.00 0.00 0.00 0.00 0.01 0.01 0.01 0.01 0.02 0.01 0.01 0.01 0.01 0.00 0.01 0.04 0.05 0.04 0.03 0.01 0.00 0.00 0.00 0.00 0.00 0.00 0.00 0.00 0.01 0.02 0.04 0.06 0.04 0.04 0.05 0.04 0.04 0.03 0.03 0.03
0.00 0.00 0.00 0.00 0.00 0.00 0.00 0.00 0.00 0.01 0.01 0.01 0.01 0.01 0.01 0.01 0.02 0.02 0.02 0.02 0.02 0.03 0.03 0.01 0.01 0.00 0.00 0.00 0.00 0.00 0.00 0.00 0.00 0.01 0.04 0.06 0.05 0.04 0.04 0.04 0.04 0.03 0.04 0.04
0.00 0.00 0.00 0.00 0.00 0.00 0.00 0.00 0.01 0.02 0.01 0.01 0.01 0.01 0.02 0.02 0.02 0.04 0.06 0.04 0.03 0.03 0.02 0.02 0.01 0.01 0.01 0.00 0.01 0.01 0.02 0.02 0.01 0.02 0.04 0.06 0.05 0.04 0.03 0.04 0.04 0.04 0.05 0.05
0.00 0.00 0.00 0.00 0.00 0.00 0.00 0.00 0.00 0.00 0.01 0.02 0.02 0.02 0.03 0.04 0.03 0.04 0.07 0.04 0.03 0.02 0.02 0.07 0.05 0.01 0.03 0.03 0.02 0.01 0.02 0.03 0.01 0.02 0.03 0.03 0.02 0.03 0.04 0.04 0.05 0.04 0.06 0.07
0.00 0.00 0.00 0.00 0.00 0.00 0.00 0.01 0.01 0.00 0.01 0.02 0.02 0.02 0.04 0.05 0.04 0.04 0.07 0.04 0.03 0.03 0.03 0.03 0.04 0.03 0.05 0.04 0.02 0.02 0.02 0.02 0.01 0.01 0.01 0.01 0.01 0.02 0.04 0.04 0.03 0.03 0.04 0.06
0.00 0.00 0.00 0.00 0.00 0.00 0.00 0.00 0.00 0.01 0.01 0.03 0.03 0.03 0.03 0.04 0.05 0.06 0.08 0.05 0.06 0.09 0.06 0.04 0.04 0.04 0.05 0.04 0.04 0.06 0.03 0.02 0.02 0.01 0.01 0.01 0.01 0.01 0.02 0.02 0.01 0.01 0.02 0.03
0.00 0.00 0.00 0.00 0.00 0.00 0.00 0.00 0.00 0.01 0.01 0.01 0.03 0.04 0.04 0.05 0.07 0.10 0.08 0.06 0.06 0.09 0.08 0.06 0.06 0.07 0.06 0.07 0.11 0.14 0.06 0.03 0.02 0.02 0.01 0.01 0.01 0.01 0.01 0.01 0.02 0.01 0.02 0.02
0.00 0.00 0.00 0.00 0.00 0.00 0.00 0.00 0.00 0.01 0.01 0.01 0.02 0.03 0.03 0.04 0.05 0.06 0.09 0.08 0.07 0.11 0.11 0.09 0.07 0.11 0.10 0.12 0.13 0.12 0.08 0.04 0.04 0.03 0.02 0.02 0.01 0.01 0.03 0.02 0.02 0.02 0.01 0.02
0.00 0.00 0.00 0.00 0.00 0.00 0.01 0.00 0.00 0.00 0.01 0.01 0.03 0.03 0.02 0.03 0.02 0.03 0.08 0.10 0.08 0.07 0.08 0.12 0.11 0.11 0.10 0.10 0.14 0.14 0.12 0.07 0.05 0.04 0.03 0.03 0.02 0.02 0.02 0.02 0.03 0.07 0.02 0.02
0.00 0.00 0.00 0.00 0.00 0.00 0.00 0.00 0.00 0.01 0.01 0.01 0.02 0.03 0.02 0.02 0.02 0.04 0.07 0.09 0.07 0.05 0.06 0.11 0.11 0.07 0.06 0.06 0.07 0.13 0.15 0.10 0.07 0.06 0.05 0.05 0.04 0.03 0.02 0.02 0.02 0.04 0.02 0.02
0.00 0.00 0.00 0.00 0.00 0.00 0.00 0.00 0.00 0.01 0.02 0.02 0.02 0.03 0.03 0.03 0.03 0.04 0.07 0.08 0.06 0.06 0.06 0.10 0.13 0.07 0.05 0.08 0.09 0.12 0.21 0.18 0.15 0.10 0.10 0.10 0.08 0.07 0.05 0.04 0.03 0.03 0.04 0.04
0.00 0.01 0.00 0.00 0.00 0.00 0.00 0.00 0.01 0.01 0.02 0.02 0.02 0.03 0.03 0.03 0.03 0.03 0.03 0.04 0.05 0.05 0.06 0.08 0.11 0.07 0.04 0.05 0.07 0.12 0.23 0.28 0.28 0.19 0.14 0.10 0.10 0.09 0.07 0.06 0.06 0.05 0.05 0.04
0.00 0.00 0.00 0.00 0.00 0.00 0.01 0.01 0.01 0.01 0.02 0.02 0.02 0.03 0.04 0.05 0.04 0.05 0.04 0.03 0.03 0.06 0.06 0.06 0.09 0.10 0.08 0.07 0.07 0.10 0.14 0.17 0.20 0.17 0.15 0.12 0.11 0.10 0.09 0.09 0.08 0.07 0.05 0.05
0.00 0.00 0.00 0.00 0.00 0.00 0.00 0.01 0.00 0.00 0.00 0.01 0.01 0.01 0.02 0.05 0.06 0.07 0.08 0.05 0.03 0.03 0.06 0.06 0.06 0.07 0.08 0.09 0.08 0.09 0.09 0.09 0.14 0.21 0.19 0.20 0.18 0.16 0.14 0.13 0.12 0.09 0.06 0.05
0.00 0.00 0.00 0.00 0.00 0.00 0.00 0.00 0.00 0.00 0.00 0.00 0.01 0.02 0.02 0.03 0.05 0.06 0.05 0.05 0.04 0.04 0.05 0.06 0.04 0.03 0.05 0.07 0.09 0.10 0.10 0.09 0.11 0.13 0.17 0.26 0.23 0.21 0.21 0.21 0.22 0.22 0.13 0.08
0.00 0.00 0.00 0.00 0.00 0.00 0.00 0.01 0.01 0.00 0.00 0.01 0.02 0.03 0.03 0.05 0.05 0.05 0.04 0.03 0.04 0.05 0.05 0.05 0.03 0.03 0.04 0.05 0.06 0.07 0.09 0.09 0.09 0.10 0.12 0.13 0.15 0.17 0.18 0.20 0.21 0.21 0.16 0.12
0.00 0.00 0.00 0.00 0.00 0.00 0.02 0.03 0.02 0.02 0.02 0.03 0.03 0.04 0.04 0.05 0.06 0.05 0.04 0.04 0.04 0.04 0.04 0.04 0.03 0.03 0.03 0.04 0.06 0.06 0.06 0.08 0.10 0.13 0.16 0.18 0.18 0.16 0.17 0.18 0.16 0.15 0.16 0.15
0.00 0.00 0.00 0.00 0.01 0.01 0.02 0.04 0.02 0.02 0.03 0.07 0.06 0.06 0.07 0.06 0.04 0.04 0.04 0.03 0.03 0.03 0.03 0.05 0.05 0.04 0.05 0.05 0.05 0.05 0.05 0.05 0.08 0.10 0.11 0.14 0.18 0.16 0.14 0.12 0.12 0.12 0.11 0.10
0.00 0.00 0.00 0.00 0.01 0.02 0.02 0.03 0.02 0.01 0.04 0.05 0.05 0.07 0.08 0.11 0.10 0.06 0.04 0.03 0.03 0.04 0.05 0.05 0.05 0.05 0.06 0.06 0.07 0.05 0.04 0.07 0.08 0.10 0.10 0.10 0.10 0.10 0.12 0.12 0.10 0.08 0.08 0.08
0.00 0.00 0.00 0.00 0.01 0.02 0.02 0.03 0.04 0.04 0.06 0.04 0.03 0.07 0.08 0.06 0.07 0.06 0.04 0.04 0.04 0.03 0.03 0.04 0.03 0.02 0.03 0.04 0.05 0.06 0.07 0.08 0.07 0.10 0.11 0.12 0.14 0.11 0.09 0.09 0.09 0.09 0.10 0.12
0.01 0.01 0.01 0.01 0.02 0.03 0.02 0.02 0.04 0.04 0.05 0.04 0.03 0.03 0.04 0.04 0.05 0.05 0.05 0.04 0.04 0.02 0.02 0.02 0.02 0.02 0.03 0.04 0.05 0.06 0.06 0.05 0.05 0.06 0.06 0.07 0.10 0.11 0.12 0.11 0.09 0.09 0.09 0.12
0.02 0.02 0.02 0.02 0.02 0.03 0.03 0.04 0.04 0.04 0.03 0.03 0.03 0.03 0.03 0.03 0.04 0.04 0.04 0.03 0.03 0.02 0.01 0.01 0.01 0.02 0.03 0.04 0.05 0.04 0.03 0.04 0.04 0.05 0.04 0.04 0.05 0.07 0.07 0.07 0.07 0.08 0.09 0.10
0.02 0.02 0.02 0.02 0.03 0.03 0.03 0.03 0.05 0.05 0.05 0.04 0.05 0.06 0.05 0.04 0.05 0.04 0.03 0.03 0.02 0.02 0.01 0.01 0.02 0.02 0.03 0.04 0.04 0.04 0.04 0.03 0.03 0.04 0.04 0.03 0.03 0.05 0.06 0.07 0.08 0.08 0.07 0.06
0.02 0.03 0.03 0.04 0.04 0.04 0.04 0.03 0.04 0.05 0.09 0.13 0.11 0.09 0.11 0.08 0.07 0.07 0.05 0.04 0.03 0.02 0.02 0.02 0.02 0.03 0.04 0.04 0.04 0.04 0.04 0.05 0.05 0.05 0.05 0.04 0.03 0.04 0.05 0.06 0.06 0.05 0.03 0.04
0.03 0.05 0.05 0.04 0.03 0.04 0.04 0.05 0.06 0.05 0.10 0.15 0.16 0.14 0.15 0.12 0.08 0.07 0.05 0.04 0.06 0.06 0.04 0.04 0.04 0.03 0.04 0.04 0.04 0.05 0.05 0.06 0.07 0.06 0.06 0.06 0.07 0.06 0.06 0.06 0.05 0.04 0.03 0.03
MSLP
1007.18 1008.27 1009.12 1009.68 1009.95 1009.98 1009.84 1009.58 1009.27 1008.93 1008.57 1008.21 1007.81 1007.40 1006.98 1006.60 1006.31 1006.14 1006.14 1006.31 1006.64 1007.10 1007.60 1008.10 1008.53 1008.87 1009.10 1009.25 1009.38 1009.51 1009.71 1009.98 1010.33 1010.73 1011.14 1011.51 1011.79 1011.97 1012.05 1012.05 1012.02 1012.00 1012.04 1012.17
1007.71 1008.56 1009.15 1009.48 1009.59 1009.56 1009.44 1009.32 1009.20 1009.08 1008.95 1008.75 1008.46 1008.07 1007.60 1007.11 1006.66 1006.34 1006.20 1006.28 1006.55 1006.97 1007.48 1007.98 1008.41 1008.72 1008.91 1009.00 1009.06 1009.13 1009.28 1009.53 1009.89 1010.32 1010.78 1011.20 1011.53 1011.73 1011.80 1011.78 1011.71 1011.65 1011.64 1011.74
1007.88 1008.45 1008.77 1008.89 1008.88 1008.84 1008.83 1008.91 1009.07 1009.26 1009.42 1009.47 1009.35 1009.04 1008.55 1007.97 1007.38 1006.89 1006.59 1006.51 1006.67 1007.00 1007.45 1007.90 1008.28 1008.54 1008.67 1008.69 1008.67 1008.68 1008.78 1009.02 1009.39 1009.87 1010.38 1010.87 1011.26 1011.52 1011.62 1011.60 1011.51 1011.41 1011.36 1011.41
1007.73 1008.04 1008.12 1008.08 1008.01 1008.02 1008.19 1008.54 1009.05 1009.61 1010.12 1010.46 1010.55 1010.35 1009.88 1009.22 1008.49 1007.83 1007.34 1007.09 1007.08 1007.28 1007.61 1007.97 1008.26 1008.43 1008.47 1008.40 1008.29 1008.22 1008.28 1008.49 1008.87 1009.38 1009.96 1010.52 1011.00 1011.32 1011.47 1011.48 1011.39 1011.27 1011.18 1011.18
1007.41 1007.48 1007.39 1007.24 1007.18 1007.32 1007.71 1008.38 1009.25 1010.20 1011.06 1011.70 1012.01 1011.93 1011.49 1010.78 1009.94 1009.12 1008.44 1008.00 1007.81 1007.85 1008.04 1008.26 1008.43 1008.48 1008.41 1008.23 1008.02 1007.86 1007.84 1008.01 1008.37 1008.90 1009.53 1010.16 1010.70 1011.10 1011.32 1011.37 1011.30 1011.17 1011.06 1011.02
1007.08 1006.98 1006.77 1006.60 1006.60 1006.89 1007.53 1008.50 1009.71 1010.99 1012.17 1013.08 1013.58 1013.62 1013.23 1012.48 1011.56 1010.61 1009.78 1009.17 1008.82 1008.70 1008.74 1008.82 1008.85 1008.78 1008.57 1008.26 1007.93 1007.66 1007.54 1007.64 1007.96 1008.47 1009.11 1009.77 1010.38 1010.84 1011.12 1011.22 1011.19 1011.07 1010.94 1010.86
1006.90 1006.70 1006.45 1006.30 1006.39 1006.84 1007.68 1008.89 1010.36 1011.89 1013.30 1014.39 1015.04 1015.18 1014.83 1014.09 1013.12 1012.11 1011.19 1010.47 1010.00 1009.76 1009.67 1009.62 1009.53 1009.32 1008.98 1008.54 1008.07 1007.67 1007.44 1007.43 1007.67 1008.12 1008.73 1009.40 1010.03 1010.53 1010.86 1011.01 1011.01 1010.91 1010.78 1010.68
1007.00 1006.76 1006.52 1006.42 1006.60 1007.16 1008.14 1009.49 1011.08 1012.73 1014.24 1015.43 1016.15 1016.35 1016.05 1015.34 1014.40 1013.40 1012.47 1011.72 1011.21 1010.90 1010.72 1010.58 1010.39 1010.06 1009.61 1009.04 1008.45 1007.92 1007.55 1007.42 1007.54 1007.90 1008.44 1009.06 1009.67 1010.18 1010.53 1010.71 1010.74 1010.66 1010.53 1010.42
1007.42 1007.20 1007.00 1006.96 1007.20 1007.80 1008.81 1010.16 1011.73 1013.36 1014.83 1015.99 1016.71 1016.94 1016.70 1016.07 1015.22 1014.30 1013.45 1012.76 1012.28 1011.97 1011.77 1011.58 1011.32 1010.92 1010.36 1009.70 1009.00 1008.35 1007.85 1007.59 1007.58 1007.81 1008.24 1008.78 1009.32 1009.80 1010.15 1010.34 1010.38 1010.32 1010.21 1010.09
1008.11 1007.96 1007.83 1007.83 1008.07 1008.64 1009.56 1010.78 1012.19 1013.64 1014.96 1016.00 1016.66 1016.88 1016.70 1016.18 1015.48 1014.72 1014.03 1013.48 1013.09 1012.84 1012.67 1012.48 1012.19 1011.74 1011.14 1010.42 1009.64 1008.90 1008.30 1007.92 1007.77 1007.87 1008.17 1008.58 1009.03 1009.44 1009.74 1009.92 1009.96 1009.91 1009.81 1009.71
1008.97 1008.92 1008.85 1008.88 1009.09 1009.55 1010.28 1011.26 1012.39 1013.56 1014.63 1015.47 1016.01 1016.21 1016.10 1015.73 1015.22 1014.67 1014.19 1013.82 1013.58 1013.44 1013.33 1013.16 1012.88 1012.44 1011.82 1011.08 1010.27 1009.49 1008.83 1008.36 1008.10 1008.07 1008.23 1008.50 1008.83 1009.13 1009.36 1009.49 1009.52 1009.47 1009.38 1009.29
1009.86 1009.92 1009.93 1009.96 1010.10 1010.40 1010.90 1011.57 1012.36 1013.19 1013.96 1014.57 1014.98 1015.15 1015.11 1014.90 1014.60 1014.29 1014.04 1013.87 1013.79 1013.76 1013.71 1013.59 1013.34 1012.92 1012.33 1011.61 1010.83 1010.06 1009.38 1008.86 1008.53 1008.38 1008.40 1008.54 1008.73 1008.91 1009.05 1009.11 1009.10 1009.04 1008.96 1008.88
1010.66 1010.83 1010.90 1010.94 1011.00 1011.14 1011.38 1011.73 1012.18 1012.66 1013.13 1013.52 1013.80 1013.95 1013.98 1013.93 1013.84 1013.75 1013.71 1013.72 1013.78 1013.84 1013.86 1013.77 1013.55 1013.17 1012.63 1011.98 1011.26 1010.55 1009.90 1009.38 1009.00 1008.78 1008.69 1008.69 1008.73 1008.79 1008.81 1008.80 1008.75 1008.66 1008.58 1008.51
1011.29 1011.55 1011.69 1011.73 1011.72 1011.71 1011.73 1011.80 1011.94 1012.13 1012.33 1012.54 1012.72 1012.86 1012.97 1013.06 1013.14 1013.25 1013.37 1013.52 1013.66 1013.78 1013.82 1013.75 1013.55 1013.21 1012.74 1012.18 1011.56 1010.94 1010.37 1009.88 1009.50 1009.23 1009.04 1008.92 1008.84 1008.76 1008.68 1008.58 1008.47 1008.36 1008.27 1008.21
1011.72 1012.05 1012.24 1012.29 1012.24 1012.12 1011.97 1011.84 1011.75 1011.71 1011.73 1011.80 1011.92 1012.07 1012.25 1012.45 1012.67 1012.90 1013.13 1013.35 1013.53 1013.65 1013.68 1013.60 1013.40 1013.10 1012.70 1012.23 1011.73 1011.23 1010.76 1010.34 1009.98 1009.68 1009.42 1009.20 1009.00 1008.81 1008.62 1008.44 1008.28 1008.14 1008.04 1007.99
1011.98 1012.35 1012.57 1012.63 1012.56 1012.38 1012.14 1011.88 1011.65 1011.48 1011.38 1011.38 1011.47 1011.64 1011.88 1012.16 1012.47 1012.77 1013.05 1013.27 1013.43 1013.50 1013.48 1013.37 1013.16 1012.89 1012.56 1012.19 1011.81 1011.43 1011.07 1010.73 1010.40 1010.09 1009.79 1009.49 1009.19 1008.90 1008.62 1008.37 1008.16 1008.00 1007.90 1007.85
1012.14 1012.50 1012.73 1012.80 1012.72 1012.53 1012.25 1011.94 1011.65 1011.42 1011.29 1011.26 1011.36 1011.55 1011.83 1012.16 1012.50 1012.82 1013.08 1013.27 1013.36 1013.36 1013.27 1013.10 1012.88 1012.63 1012.35 1012.08 1011.81 1011.55 1011.29 1011.03 1010.74 1010.44 1010.10 1009.74 1009.36 1008.99 1008.65 1008.35 1008.11 1007.94 1007.83 1007.78
1012.28 1012.59 1012.78 1012.84 1012.76 1012.57 1012.30 1011.99 1011.70 1011.48 1011.35 1011.34 1011.45 1011.67 1011.97 1012.31 1012.65 1012.94 1013.15 1013.27 1013.28 1013.20 1013.03 1012.82 1012.58 1012.33 1012.11 1011.92 1011.74 1011.58 1011.41 1011.21 1010.97 1010.66 1010.31 1009.91 1009.49 1009.07 1008.68 1008.36 1008.10 1007.93 1007.83 1007.78
1012.45 1012.66 1012.78 1012.80 1012.70 1012.52 1012.26 1011.98 1011.73 1011.53 1011.44 1011.46 1011.59 1011.82 1012.12 1012.45 1012.76 1013.00 1013.15 1013.20 1013.13 1012.97 1012.75 1012.50 1012.25 1012.02 1011.85 1011.71 1011.61 1011.52 1011.42 1011.27 1011.05 1010.76 1010.40 1009.98 1009.54 1009.10 1008.70 1008.37 1008.12 1007.96 1007.86 1007.82
1012.68 1012.75 1012.76 1012.70 1012.57 1012.37 1012.13 1011.88 1011.66 1011.50 1011.44 1011.48 1011.63 1011.87 1012.15 1012.45 1012.71 1012.90 1012.99 1012.97 1012.85 1012.65 1012.40 1012.13 1011.89 1011.69 1011.55 1011.46 1011.42 1011.38 1011.32 1011.20 1011.00 1010.72 1010.37 1009.95 1009.51 1009.08 1008.70 1008.38 1008.15 1008.00 1007.92 1007.88
1012.92 1012.84 1012.72 1012.56 1012.36 1012.13 1011.88 1011.64 1011.45 1011.32 1011.28 1011.34 1011.49 1011.71 1011.96 1012.22 1012.44 1012.59 1012.64 1012.59 1012.44 1012.23 1011.97 1011.72 1011.49 1011.32 1011.22 1011.17 1011.15 1011.14 1011.10 1011.00 1010.82 1010.56 1010.22 1009.83 1009.41 1009.01 1008.65 1008.37 1008.16 1008.03 1007.96 1007.92
1013.12 1012.88 1012.63 1012.35 1012.07 1011.79 1011.52 1011.28 1011.10 1010.98 1010.95 1011.00 1011.14 1011.33 1011.56 1011.78 1011.96 1012.08 1012.11 1012.05 1011.91 1011.72 1011.49 1011.27 1011.08 1010.94 1010.86 1010.82 1010.82 1010.82 1010.79 1010.70 1010.53 1010.29 1009.98 1009.62 1009.25 1008.89 1008.58 1008.33 1008.15 1008.03 1007.96 1007.91
1013.20 1012.82 1012.44 1012.06 1011.70 1011.36 1011.06 1010.81 1010.63 1010.51 1010.48 1010.52 1010.64 1010.80 1011.00 1011.19 1011.34 1011.45 1011.48 1011.44 1011.33 1011.17 1010.99 1010.81 1010.66 1010.54 1010.48 1010.45 1010.45 1010.44 1010.40 1010.32 1010.16 1009.95 1009.68 1009.37 1009.04 1008.74 1008.47 1008.25 1008.09 1007.97 1007.89 1007.82
1013.09 1012.61 1012.13 1011.67 1011.24 1010.86 1010.54 1010.28 1010.09 1009.98 1009.94 1009.97 1010.07 1010.21 1010.37 1010.54 1010.69 1010.79 1010.84 1010.83 1010.76 1010.65 1010.52 1010.38 1010.26 1010.17 1010.11 1010.07 1010.05 1010.03 1009.98 1009.89 1009.76 1009.57 1009.34 1009.08 1008.82 1008.56 1008.33 1008.14 1007.99 1007.86 1007.76 1007.66
1012.75 1012.21 1011.67 1011.17 1010.71 1010.32 1009.99 1009.74 1009.57 1009.46 1009.43 1009.45 1009.54 1009.66 1009.81 1009.96 1010.10 1010.21 1010.28 1010.29 1010.27 1010.20 1010.11 1010.01 1009.91 1009.82 1009.75 1009.70 1009.66 1009.61 1009.55 1009.46 1009.34 1009.19 1009.00 1008.80 1008.58 1008.37 1008.18 1008.00 1007.84 1007.70 1007.57 1007.43
1012.18 1011.63 1011.08 1010.58 1010.14 1009.76 1009.47 1009.25 1009.11 1009.03 1009.01 1009.05 1009.13 1009.24 1009.38 1009.52 1009.66 1009.77 1009.85 1009.90 1009.90 1009.87 1009.80 1009.71 1009.62 1009.53 1009.44 1009.36 1009.29 1009.22 1009.15 1009.06 1008.96 1008.84 1008.69 1008.54 1008.37 1008.20 1008.02 1007.85 1007.69 1007.52 1007.35 1007.17
Thickness
5835 5816 5805 5814 5821 5820 5817 5810 5809 5824 5845 5838 5829 5827 5831 5836 5833 5829 5827 5826 5825 5823 5827 5828 5825 5822 5817 5813 5809 5805 5802 5799 5797 5792 5788 5785 5783 5783 5783 5783 5782 5780 5778 5776
5810 5803 5822 5832 5832 5826 5819 5808 5810 5825 5843 5836 5823 5822 5831 5835 5834 5834 5831 5828 5826 5823 5822 5825 5825 5822 5818 5814 5811 5808 5805 5802 5799 5796 5792 5789 5787 5785 5784 5784 5783 5781 5779 5777
5800 5815 5834 5829 5823 5817 5814 5809 5813 5818 5831 5832 5818 5805 5816 5830 5836 5835 5835 5834 5832 5828 5824 5824 5824 5822 5819 5816 5813 5811 5807 5804 5801 5798 5794 5790 5786 5784 5782 5782 5781 5782 5780 5778
5808 5825 5828 5821 5820 5819 5805 5827 5828 5825 5810 5796 5806 5774 5799 5817 5821 5826 5828 5829 5829 5830 5827 5825 5824 5822 5821 5819 5818 5814 5810 5806 5802 5799 5794 5789 5784 5780 5781 5782 5782 5782 5781 5779
5806 5823 5820 5815 5824 5828 5821 5837 5830 5825 5808 5793 5796 5777 5786 5807 5807 5817 5825 5828 5829 5831 5830 5827 5827 5826 5825 5822 5818 5814 5810 5806 5803 5800 5796 5791 5786 5784 5783 5782 5781 5780 5780 5779
5817 5833 5831 5829 5838 5839 5837 5828 5817 5803 5786 5769 5786 5777 5776 5795 5808 5817 5823 5828 5830 5831 5832 5829 5830 5827 5823 5820 5817 5813 5808 5805 5803 5800 5796 5792 5788 5784 5782 5780 5779 5778 5777 5777
5800 5817 5833 5838 5823 5828 5823 5791 5763 5760 5749 5757 5784 5778 5779 5811 5823 5824 5825 5827 5829 5830 5828 5826 5824 5822 5819 5817 5815 5811 5807 5804 5803 5799 5796 5793 5790 5787 5783 5781 5779 5777 5775 5774
5773 5781 5815 5829 5820 5810 5810 5791 5758 5745 5742 5755 5775 5771 5790 5819 5828 5829 5829 5829 5828 5825 5826 5825 5825 5824 5820 5816 5814 5811 5807 5805 5803 5800 5797 5794 5792 5789 5786 5783 5781 5778 5776 5775
5771 5779 5819 5830 5834 5824 5806 5793 5791 5766 5759 5750 5758 5774 5796 5814 5815 5816 5818 5819 5819 5820 5822 5821 5822 5821 5819 5816 5814 5812 5808 5805 5803 5801 5797 5794 5791 5788 5786 5783 5781 5779 5778 5776
5787 5778 5800 5821 5827 5825 5817 5805 5777 5759 5742 5734 5750 5762 5770 5792 5799 5806 5808 5809 5811 5815 5818 5819 5819 5818 5817 5815 5813 5811 5808 5804 5803 5801 5797 5793 5789 5787 5784 5782 5779 5778 5777 5775
5787 5770 5781 5796 5797 5796 5801 5795 5778 5757 5752 5735 5731 5752 5796 5796 5802 5803 5805 5808 5807 5809 5812 5814 5814 5816 5814 5812 5810 5808 5804 5802 5800 5798 5795 5792 5788 5784 5782 5779 5777 5775 5774 5773
5776 5762 5757 5776 5801 5812 5802 5790 5772 5752 5747 5744 5737 5753 5804 5804 5805 5805 5803 5804 5805 5805 5807 5808 5808 5809 5808 5806 5805 5806 5803 5802 5799 5796 5792 5788 5785 5782 5779 5777 5775 5773 5771 5770
5770 5749 5735 5747 5766 5784 5783 5785 5777 5763 5748 5737 5733 5751 5795 5797 5798 5802 5801 5800 5800 5799 5798 5799 5799 5799 5800 5801 5801 5801 5799 5798 5796 5791 5787 5784 5781 5778 5775 5774 5772 5770 5768 5766
5769 5741 5733 5728 5740 5757 5763 5772 5775 5759 5738 5736 5744 5755 5772 5782 5786 5791 5793 5794 5793 5793 5792 5791 5790 5791 5793 5795 5795 5795 5794 5793 5791 5786 5782 5778 5776 5774 5771 5769 5768 5766 5764 5761
5750 5733 5740 5744 5755 5761 5761 5765 5771 5763 5755 5746 5753 5758 5767 5777 5783 5786 5787 5786 5786 5786 5786 5785 5783 5783 5785 5788 5787 5787 5786 5786 5784 5779 5775 5773 5771 5769 5766 5764 5762 5761 5759 5757
5732 5726 5730 5732 5748 5751 5752 5760 5763 5763 5762 5758 5757 5755 5771 5776 5779 5778 5778 5779 5777 5777 5777 5777 5777 5777 5779 5780 5780 5779 5777 5776 5775 5772 5770 5769 5766 5762 5760 5758 5758 5756 5752 5750
5716 5713 5708 5707 5726 5732 5727 5745 5752 5751 5755 5755 5745 5751 5763 5763 5765 5767 5769 5771 5771 5770 5769 5768 5769 5769 5771 5772 5773 5770 5769 5768 5766 5764 5763 5761 5758 5754 5753 5752 5750 5748 5746 5744
5708 5701 5691 5692 5703 5696 5720 5747 5751 5746 5746 5750 5750 5753 5757 5758 5759 5760 5763 5764 5763 5764 5762 5761 5760 5761 5763 5765 5764 5763 5762 5759 5757 5756 5755 5753 5751 5748 5745 5744 5742 5740 5738 5735
5709 5696 5683 5677 5679 5691 5716 5734 5737 5730 5725 5739 5740 5743 5746 5750 5747 5745 5753 5756 5756 5756 5755 5754 5753 5752 5753 5753 5753 5751 5749 5749 5747 5746 5745 5744 5742 5739 5737 5735 5734 5732 5730 5727
5698 5692 5678 5672 5671 5673 5699 5727 5737 5726 5707 5727 5731 5730 5733 5734 5719 5724 5739 5743 5744 5745 5745 5744 5744 5742 5741 5741 5742 5739 5738 5737 5736 5737 5736 5736 5733 5731 5728 5726 5724 5722 5721 5719
5672 5670 5666 5664 5663 5676 5702 5720 5724 5694 5692 5713 5721 5722 5722 5719 5718 5723 5728 5731 5732 5734 5735 5734 5732 5730 5730 5731 5731 5728 5729 5728 5730 5730 5728 5727 5725 5722 5720 5717 5715 5713 5711 5709
5656 5654 5654 5653 5651 5663 5697 5702 5692 5688 5699 5704 5708 5712 5712 5713 5716 5715 5717 5718 5720 5721 5722 5722 5720 5720 5722 5723 5721 5718 5718 5720 5721 5720 5718 5717 5715 5714 5712 5708 5705 5702 5700 5698
5652 5653 5651 5652 5656 5674 5685 5687 5690 5692 5692 5695 5697 5701 5702 5702 5703 5704 5706 5707 5709 5711 5711 5712 5711 5711 5713 5714 5714 5710 5710 5710 5710 5708 5705 5704 5703 5702 5700 5698 5695 5692 5689 5687
5648 5654 5648 5648 5657 5667 5674 5678 5682 5685 5685 5687 5689 5690 5691 5691 5693 5694 5694 5696 5697 5699 5700 5703 5702 5700 5700 5703 5704 5703 5702 5701 5699 5696 5694 5693 5691 5689 5687 5686 5684 5681 5679 5676
5637 5639 5636 5637 5647 5655 5662 5666 5670 5673 5676 5677 5677 5678 5678 5679 5680 5681 5681 5684 5686 5688 5689 5691 5690 5688 5689 5690 5691 5692 5691 5690 5687 5685 5683 5681 5679 5677 5675 5673 5671 5670 5670 5668
5631 5629 5625 5627 5639 5639 5646 5655 5661 5662 5663 5665 5665 5665 5667 5669 5668 5670 5670 5674 5676 5676 5677 5677 5677 5676 5677 5678 5679 5680 5680 5678 5676 5673 5671 5668 5666 5665 5663 5661 5659 5658 5657 5656